Total_Precipitation_Accumulation
0.43 0.25 0.30 0.27 0.23 0.24 0.24 0.28 0.31 0.32 0.30 0.26 0.25 0.30 0.37 0.33 0.29 0.31 0.33 0.36 0.45 0.58 0.69 0.71 0.75 0.92 1.01 0.91 0.79 0.70 0.67 0.74 0.89 1.00 1.03 1.08 1.17 1.20 1.36 1.45 1.42 1.32 1.25
0.47 0.27 0.30 0.28 0.27 0.26 0.24 0.26 0.30 0.31 0.30 0.26 0.24 0.29 0.40 0.35 0.32 0.31 0.35 0.40 0.48 0.58 0.64 0.65 0.74 0.81 0.76 0.70 0.68 0.66 0.64 0.73 0.96 1.17 1.29 1.29 1.36 1.36 1.45 1.65 1.80 1.73 1.42
0.60 0.42 0.32 0.30 0.27 0.27 0.25 0.27 0.27 0.29 0.32 0.31 0.24 0.23 0.26 0.25 0.25 0.26 0.29 0.38 0.49 0.55 0.56 0.56 0.62 0.61 0.58 0.57 0.59 0.63 0.66 0.79 1.07 1.43 1.74 1.89 1.71 1.68 1.62 1.64 1.71 1.57 1.60
0.54 0.52 0.38 0.36 0.31 0.27 0.27 0.30 0.31 0.31 0.31 0.29 0.25 0.23 0.22 0.23 0.24 0.27 0.30 0.37 0.51 0.59 0.59 0.54 0.54 0.55 0.54 0.55 0.56 0.60 0.66 0.81 1.15 1.53 2.16 2.27 2.22 2.28 1.86 1.58 1.50 1.46 1.68
0.47 0.48 0.47 0.40 0.36 0.31 0.30 0.33 0.35 0.36 0.34 0.34 0.33 0.32 0.31 0.29 0.30 0.35 0.41 0.46 0.53 0.59 0.62 0.60 0.61 0.61 0.55 0.52 0.54 0.61 0.71 0.91 1.26 1.61 2.14 2.69 3.07 2.73 2.14 1.74 1.57 1.51 1.66
0.52 0.52 0.50 0.45 0.44 0.44 0.42 0.42 0.41 0.40 0.38 0.40 0.41 0.41 0.41 0.46 0.48 0.50 0.57 0.62 0.64 0.67 0.69 0.68 0.69 0.64 0.54 0.53 0.56 0.64 0.80 1.02 1.17 1.48 2.13 2.86 2.86 2.64 2.29 2.02 1.76 1.67 1.64
0.55 0.61 0.51 0.54 0.54 0.55 0.57 0.53 0.51 0.47 0.46 0.48 0.49 0.46 0.48 0.57 0.62 0.62 0.69 0.72 0.74 0.78 0.79 0.76 0.68 0.60 0.54 0.56 0.61 0.69 0.83 1.01 1.14 1.75 2.36 2.73 2.60 2.41 2.33 2.23 2.05 1.90 1.75
0.59 0.58 0.60 0.60 0.63 0.63 0.69 0.74 0.71 0.63 0.60 0.59 0.58 0.54 0.49 0.50 0.56 0.69 0.77 0.79 0.81 0.83 0.79 0.73 0.67 0.61 0.59 0.61 0.64 0.75 0.87 0.88 0.91 1.54 2.18 2.34 2.07 2.16 2.31 2.19 2.11 1.97 1.84
0.73 0.73 0.81 0.86 0.88 0.93 0.97 0.98 0.94 0.86 0.80 0.73 0.67 0.60 0.54 0.54 0.59 0.69 0.85 0.92 0.90 0.86 0.81 0.75 0.71 0.69 0.68 0.67 0.65 0.71 0.80 0.90 0.91 1.26 1.87 2.32 1.81 1.98 2.32 2.23 2.08 2.02 1.90
1.22 1.20 1.24 1.32 1.29 1.22 1.15 1.14 1.09 1.01 0.95 0.87 0.74 0.67 0.67 0.70 0.78 0.90 0.86 0.93 0.97 0.97 0.91 0.88 0.82 0.75 0.78 0.74 0.74 0.78 0.87 0.84 0.79 1.12 1.73 1.90 1.77 2.15 2.49 2.35 2.15 2.07 1.87
1.86 1.81 1.69 1.67 1.56 1.55 1.45 1.25 1.30 1.22 1.16 1.09 0.98 0.88 0.89 0.97 1.16 1.25 1.07 1.13 1.15 1.16 1.12 1.12 1.07 1.01 0.98 0.90 0.93 0.98 0.93 0.79 0.95 1.27 1.87 1.98 2.20 2.49 2.75 2.67 2.40 2.18 2.02
2.35 2.26 2.00 2.07 2.00 1.82 1.69 1.66 1.66 1.51 1.51 1.50 1.51 1.29 1.33 1.67 1.80 1.57 1.61 1.58 1.60 1.56 1.42 1.38 1.33 1.21 1.08 1.03 1.16 1.20 0.93 0.87 1.04 1.30 1.65 1.97 2.29 2.66 2.85 2.73 2.50 2.31 2.24
2.37 2.22 2.32 2.50 2.35 2.35 2.45 2.38 2.21 2.14 2.13 2.00 2.05 1.87 1.92 1.93 1.86 1.87 1.99 1.98 1.94 1.86 1.84 1.84 1.67 1.44 1.40 1.43 1.40 1.27 1.15 1.16 1.17 1.34 1.66 1.97 2.25 2.69 2.93 2.79 2.58 2.47 2.44
2.65 2.43 2.52 2.52 2.52 2.66 2.75 2.83 2.86 2.72 2.69 2.56 2.49 2.26 2.35 2.41 2.42 2.37 2.49 2.50 2.50 2.49 2.49 2.35 2.17 2.10 1.85 1.74 1.63 1.58 1.46 1.42 1.54 1.73 1.93 1.98 2.12 2.52 2.87 2.91 2.74 2.61 2.55
3.24 3.02 2.89 2.98 2.83 2.79 3.01 3.14 2.98 3.12 3.05 3.14 3.11 2.76 2.74 2.77 2.81 2.99 2.93 3.01 2.90 3.05 2.99 2.76 2.45 2.34 2.22 1.96 1.77 1.75 1.74 1.72 1.79 1.86 2.00 2.09 2.12 2.36 2.77 3.01 2.95 2.84 2.89
3.66 3.51 3.27 3.18 3.18 3.06 3.21 3.45 3.40 3.22 3.30 3.34 3.48 3.29 3.19 3.21 3.30 3.36 3.34 3.35 3.12 3.08 3.12 2.98 2.67 2.52 2.38 2.21 1.89 1.74 1.75 1.96 1.95 1.89 2.05 2.16 2.12 2.17 2.49 2.95 3.21 3.34 3.43
3.83 3.61 3.58 3.41 3.62 3.74 3.94 3.90 3.90 3.93 3.93 3.84 3.78 3.87 3.77 3.77 3.84 3.73 3.81 3.78 3.55 3.39 3.37 3.32 3.18 2.85 2.64 2.58 2.39 2.15 2.00 2.00 2.15 2.27 2.29 2.35 2.39 2.35 2.50 2.78 3.10 3.33 3.50
3.76 3.77 3.92 3.72 3.79 4.02 4.07 4.06 4.20 4.49 4.61 4.41 4.17 4.20 4.16 4.28 4.37 4.41 4.21 3.94 3.77 3.63 3.62 3.74 3.50 3.16 3.04 3.06 2.88 2.50 2.18 2.21 2.33 2.36 2.40 2.47 2.64 2.55 2.57 2.57 2.73 2.99 3.27
3.68 3.67 3.88 4.09 3.95 4.18 4.32 4.40 4.61 4.84 5.02 4.88 4.65 4.49 4.52 4.57 4.52 4.63 4.55 4.35 4.15 4.01 3.93 3.63 3.61 3.49 3.44 3.34 2.90 2.67 2.34 2.25 2.30 2.26 2.33 2.44 2.67 2.75 2.74 2.53 2.62 2.95 3.16
3.74 3.81 3.90 4.25 4.27 4.60 4.74 4.60 4.81 4.95 5.02 5.01 4.98 4.89 5.05 5.11 4.91 4.88 4.69 4.57 4.49 4.39 4.21 3.96 3.92 3.83 3.59 3.41 2.94 2.70 2.48 2.25 2.22 2.23 2.21 2.29 2.36 2.41 2.51 2.52 2.55 2.50 2.76
3.97 4.10 4.09 4.23 4.50 4.69 4.87 4.92 5.26 5.27 5.12 5.28 5.51 5.46 5.61 5.68 5.39 5.26 5.10 4.95 4.72 4.49 4.34 4.18 3.98 3.81 3.51 3.40 3.24 2.94 2.51 2.19 2.17 2.15 2.07 2.15 2.18 2.15 2.25 2.33 2.50 2.46 2.36
4.11 4.25 4.45 4.60 4.66 4.80 5.29 5.73 6.09 6.42 6.40 6.33 6.48 6.47 6.27 6.14 5.99 5.75 5.67 5.39 5.00 4.71 4.40 4.13 3.93 3.64 3.34 3.33 3.38 3.46 2.98 2.55 2.05 1.76 1.80 1.85 1.85 1.88 1.98 2.10 2.19 2.23 2.18
3.90 4.13 4.37 4.69 5.07 5.59 6.23 6.67 6.95 7.28 7.42 7.16 6.88 6.69 6.44 6.26 6.07 5.64 5.39 5.27 4.98 4.49 4.18 4.01 3.81 3.59 3.35 3.23 3.21 3.47 3.24 2.82 2.34 2.00 1.77 1.65 1.69 1.81 1.88 2.00 2.05 2.01 1.92
3.48 3.86 4.28 4.71 5.34 6.23 6.91 7.30 7.63 7.76 7.77 7.60 7.30 6.87 6.43 6.05 5.63 5.24 4.97 4.68 4.42 4.07 3.83 3.59 3.49 3.45 3.37 3.15 3.08 2.93 2.74 2.57 2.58 2.34 2.04 1.85 1.78 1.79 1.76 1.73 1.77 1.83 1.86
3.27 3.67 4.12 4.57 5.31 6.04 6.67 7.23 7.67 7.81 7.76 7.51 7.04 6.47 5.92 5.46 4.98 4.51 4.20 3.93 3.69 3.41 3.18 2.98 2.95 3.04 3.09 3.00 2.95 2.89 2.77 2.67 2.54 2.39 2.25 2.19 2.10 1.94 1.81 1.73 1.71 1.71 1.67
2.90 3.29 3.75 4.18 4.77 5.41 5.88 6.47 6.85 7.01 6.88 6.45 5.87 5.24 4.85 4.58 4.24 3.84 3.49 3.24 2.94 2.71 2.52 2.44 2.41 2.42 2.56 2.62 2.66 2.66 2.65 2.75 2.69 2.65 2.47 2.34 2.30 2.14 1.98 1.85 1.77 1.72 1.63